Regional Weather Roundup
Issued by NWS

Home | Current Version | Previous Version | Text Only | Print | Product List | Glossary Off
Versions: 1 2 3 4 5 6 7 8 9 10 11 12 13 14 15 16 17 18 19 20 21 22 23 24 25 26 27 28 29 30 31 32 33 34 35 36 37 38 39 40 41 42 43 44 45 46 47 48 49 50

000
ASUS43 KMPX 241210
RWRMN
WEATHER ROUNDUP FOR MINNESOTA
NATIONAL WEATHER SERVICE TWIN CITIES/CHANHASSEN MN
700 AM CDT SAT SEP 24 2016


NOTE: "FAIR" INDICATES FEW OR NO CLOUDS BELOW 12,000 FEET WITH NO
SIGNIFICANT WEATHER AND/OR OBSTRUCTIONS TO VISIBILITY. N/A MEANS
CURRENT SKY AND/OR WEATHER CONDITIONS ARE NOT AVAILABLE.

MNZ060>063-068>070-241300-
   Twin Cities Metro

CITY           SKY/WX    TMP DP  RH WIND       PRES   REMARKS
TWIN CITIES    CLOUDY    64  60  87 SE12      30.10S
6HR MIN TEMP:  64; 6HR MAX TEMP:  65;

ST PAUL        CLOUDY    64  60  87 SE10      30.11S
CRYSTAL        CLOUDY    64  59  83 SE12      30.09R
BLAINE         CLOUDY    64  63  94 SE10      30.10S
LAKEVILLE      CLOUDY    63  63 100 SE7       30.10S
EDEN PRAIRIE   CLOUDY    65  61  87 SE9       30.08S
6HR MIN TEMP:  65; 6HR MAX TEMP:  66;

LAKEVILLE      CLOUDY    63  63 100 SE7       30.10S
SOUTH ST PAUL  CLOUDY    64  60  88 SE7       30.11R
LAKE ELMO      CLOUDY    63  59  88 E7        30.13R
$$
MNZ001>005-007-008-013>017-022>024-027-028-241300-
   Northwest Minnesota

CITY           SKY/WX    TMP DP  RH WIND       PRES   REMARKS
BEMIDJI        CLOUDY    58  57  97 SE12G17   30.04R FOG
HALLOCK        CLOUDY    57  55  94 SE15      29.93S FOG
ROSEAU         CLOUDY    55  50  82 E10       30.01F HAZE
WARROAD        CLOUDY    54  50  87 E15       30.04S FOG
THIEF RVR FALL CLOUDY    60  58  92 E13       29.97F
CROOKSTON      CLOUDY    63  61  94 SE12      29.93F
FOSSTON        CLOUDY    61  57  88 SE9       29.98S
DETROIT LAKES  CLOUDY    63  61  94 SE14      30.00S
MOORHEAD       CLOUDY    66  63  88 SE15G24   29.92F
PARK RAPIDS    CLOUDY    62  59  90 SE13      30.04S FOG
MAHNOMEN       CLOUDY    63  60  93 SE14G22   29.97S
$$
MNZ006-009>011-018-025>026-241300-
   North Central Minnesota

CITY           SKY/WX    TMP DP  RH WIND       PRES   REMARKS
BAUDETTE       CLOUDY    54  53  97 SE10      30.06F
FLAG ISLAND    CLOUDY    55  54  94 SE13      30.02F
INTL FALLS     CLOUDY    54  52  93 SE10      30.09F
6HR MIN TEMP:  53; 6HR MAX TEMP:  54; 6HR PCP:  0.08;

WASKISH        CLOUDY    59  55  88 SE6       30.06R
BIG FORK       CLOUDY    57  55  94 SE6       30.10R
GRAND RAPIDS   CLOUDY    58  55  90 SE10      30.12S
ORR            CLOUDY    55  50  82 SE7       30.10S
COOK           CLOUDY    57  52  82 SE7       30.14S
WALKER         DRIZZLE   58  58  98 SE7       30.06S
$$
MNZ012-019>021-037-241300-
   Northeast Minnesota

CITY           SKY/WX    TMP DP  RH WIND       PRES   REMARKS
DULUTH         CLOUDY    57  53  86 E10       30.16S
6HR MIN TEMP:  55; 6HR MAX TEMP:  57;

ELY            CLOUDY    54  52  94 SE9       30.17S
HIBBING        CLOUDY    56  52  86 SE10      30.14R
EVELETH        CLOUDY    58  52  81 SE7       30.16S
DULUTH HARBOR  CLOUDY    59  55  88 NE13      30.17S
TWO HARBORS    CLOUDY    61  55  82 E7        30.17S
SILVER BAY     CLOUDY    57  55  94 NE5       30.19S
GRAND MARAIS     N/A     59  51  75 E7        30.23F
G MARAIS ARPRT CLOUDY    50  46  87 SE5       30.25S
$$
MNZ029>031-032-039>041-046>048-054>057-064-241300-
   West Central Minnesota

CITY           SKY/WX    TMP DP  RH WIND       PRES   REMARKS
FERGUS FALLS   CLOUDY    66  66 100 SE15      29.97F
MORRIS         CLOUDY    66  66 100 SE14      29.96F FOG
ALEXANDRIA     CLOUDY    63  63 100 SE10      30.04R FOG
ELBOW LAKE     CLOUDY    65  64  98 E17       29.98F
GLENWOOD       CLOUDY    64  63  94 SE10      30.03S FOG
BENSON         CLOUDY    66  64  94 S10G22    29.98F FOG
ORTONVILLE     CLOUDY    68  64  88 SE14G21   29.93F FOG
MADISON          N/A     70  70 100 SE15G21   29.95S FOG
WILLMAR        CLOUDY    66  66 100 SE12      30.03S FOG
$$
MNZ033>034-036-042>043-049>051-058-059-241300-
   Central Minnesota

CITY           SKY/WX    TMP DP  RH WIND       PRES   REMARKS
ST CLOUD       CLOUDY    62  62 100 SE9       30.07S FOG
6HR MIN TEMP:  62; 6HR MAX TEMP:  62;

SAUK CENTRE    CLOUDY    63  62  99 E9        30.04S FOG
PAYNESVILLE    CLOUDY    64  64 100 SE13      30.05S FOG
AITKIN         CLOUDY    63  57  82 E7        30.09S HAZE
PINE RIVER     CLOUDY    61  61 100 SE10      30.09F FOG
BRAINERD       CLOUDY    60  60 100 SE8       30.08S FOG
STAPLES        CLOUDY    61  61 100 SE8       30.05S FOG
LONG PRAIRIE   CLOUDY    61  61 100 E8        30.05S FOG
LITTLE FALLS   CLOUDY    61  59  94 SE10      30.07S FOG
LITCHFIELD     CLOUDY    66  66 100 SE10      30.05F FOG
BUFFALO        CLOUDY    63  61  93 E8        30.08F FOG
MAPLE LAKE     CLOUDY    64  64  98 SE7       30.08S FOG
HUTCHINSON     CLOUDY    66  65  99 SE12      30.06S FOG
$$
MNZ037-044-045-052-053-241300-
   East Central Minnesota

CITY           SKY/WX    TMP DP  RH WIND       PRES   REMARKS
PRINCETON      CLOUDY    63  61  94 E6        30.10R FOG
MORA           CLOUDY    59  55  88 SE5       30.14R FOG
CAMBRIDGE      CLOUDY    63  57  82 SE8       30.10R
MOOSE LAKE     CLOUDY    59  54  82 SE7       30.13R
HINCKLEY       CLOUDY    59  57  94 E7        30.13S
CLOQUET        CLOUDY    57  52  82 E9        30.15S
MCGREGOR       CLOUDY    55  55 100 SE7       30.13R
$$
MNZ071>073-080-081-089-090-097-098-241300-
   Southwest Minnesota

CITY           SKY/WX    TMP DP  RH WIND       PRES   REMARKS
MONTEVIDEO     CLOUDY    66  66 100 S14       29.99F FOG
GRANITE FALLS  CLOUDY    69  67  94 SE13      29.99F FOG
CANBY          CLOUDY    67  66  96 E10       29.95F FOG
MARSHALL       MOCLDY    68  66  93 SE17      29.97F
REDWOOD FALLS  CLOUDY    68  65  90 SE12      30.01F FOG
OLIVIA         CLOUDY    64  63  94 SE13      30.01F FOG
PIPESTONE        N/A     68  64  88 SE10      29.96S
WINDOM         PTCLDY    68  64  88 SE12      30.02S FOG
WORTHINGTON    CLOUDY    67  66  97 SE10      30.01S FOG
JACKSON        CLOUDY    68  63  83 SE12      30.03S HAZE
TRACY          CLOUDY    68  67  97 SE10      29.99F FOG
$$
MNZ065>067-074>077-082>085-091>093-241300-
   South Central Minnesota

CITY           SKY/WX    TMP DP  RH WIND       PRES   REMARKS
MANKATO        CLOUDY    65  63  93 SE15      30.07F
NEW ULM        CLOUDY    66  64  94 SE12      30.04S FOG
ST JAMES       CLOUDY    66  64  94 E9        30.05S
FAIRMONT       CLOUDY    67  65  93 SE10G18   30.04F
GLENCOE        CLOUDY    66  66 100 SE9       30.07S FOG
FARIBAULT      CLOUDY    64  63  94 SE7       30.10S
OWATONNA       CLOUDY    64  61  88 SE12G17   30.09F
WASECA         CLOUDY    63  61  94 SE12      30.10S FOG
ALBERT LEA     CLOUDY    64  63  94 SE10      30.10R FOG
$$
MNZ078>079-086>088-094>096-241300-
   Southeast Minnesota

CITY           SKY/WX    TMP DP  RH WIND       PRES   REMARKS
ROCHESTER      CLOUDY    62  61  96 SE13      30.14R FOG
6HR MIN TEMP:  62; 6HR MAX TEMP:  64;

RED WING       CLOUDY    64  59  82 SE12      30.11S
DODGE CENTER   CLOUDY    63  61  94 SE9       30.12S
WINONA         CLOUDY    61  59  94 SE6       30.15S
AUSTIN         CLOUDY    64  61  88 SE8       30.12R FOG
PRESTON        CLOUDY    61  59  94 SE8       30.15R FOG
$$
ABBREVIATIONS USED IN REMARKS
   TC - TEMPERATURES IN CELSIUS
  WCI - WIND CHILL INDEX
   HX - HEAT INDEX
  VSB - VISIBILITY
$$



USA.gov is the U.S. government's official web portal to all federal, state and local government web resources and services.